Location: Ermatingen
(47.6706°N, 9.0857°E)
Time: 02:44:49
(UTC+00:00)

Cosmos 1782 Rocket - Pass Details

Date: 18 September 2020
Orbit: 607 x 632 km, 82.5° (Epoch: 24 October)

Event Time Altitude Azimuth Distance (km) Brightness Sun altitude
Rises 18:42:23 0° 198° (SSW) 2,882 7.0 -13.0°
Reaches altitude 10° 18:44:37 10° 203° (SSW) 1,985 6.2 -13.3°
Maximum altitude 18:48:57 57° 282° (WNW) 739 4.3 -14.0°
Drops below altitude 10° 18:53:22 10° 2° (N) 2,016 6.4 -14.7°
Sets 18:55:39 0° 7° (N) 2,931 7.2 -15.1°
